Le Luc, France

11:16 AM CET on December 17, 2017 (GMT +0100)
Le Cannet Army

Weather History for LFMC - October, 2012

Change the Weather History Date:

Wednesday, October 3, 2012

  Actual Average Record
Temperature  
Mean Temperature 65 °F -  
Max Temperature 80 °F 67 °F - ()
Min Temperature 50 °F 54 °F - ()
Growing Degree Days 15 (Base 50)    
Moisture  
Dew Point 51 °F    
Average Humidity 69    
Maximum Humidity 94    
Minimum Humidity 30    
Precipitation  
Precipitation 0.00 in - - ()
Sea Level Pressure  
Sea Level Pressure 30.07 in    
Wind  
Wind Speed 2 mph ()    
Max Wind Speed 9 mph    
Max Gust Speed -    
Visibility 6.2 miles    
Events      
T = Trace of Precipitation, MM = Missing Value Source: Averaged Metar Reports

Daily Weather History Graph

Daily Weather History Graph

Search for Another Location

Airport or City:

Trip Planner

Search our weather history database for the weather conditions in past years. The results will help you decide how hot, cold, wet, or windy it might be!

Date:

Astronomy

Oct. 03, 2012 Rise Set
Actual Time 7:34 AM CEST 7:11 PM CEST
Civil Twilight 7:06 AM CEST 7:40 PM CEST
Nautical Twilight 6:32 AM CEST 8:13 PM CEST
Astronomical Twilight 5:59 AM CEST 8:46 PM CEST
Moon 8:46 PM CEST (10/3) 10:49 AM CEST (10/3)
Length of Visible Light 12h 34m
Length of Day
11h 37m
Waning Gibbous, 90% of the Moon is Illuminated
Oct 3
Waning Gibbous
Oct 8
Last Quarter
Oct 15
New
Oct 22
First Quarter
Oct 29
Full

Hourly Weather History & Observations

Time (CEST) Temp. Dew Point Humidity Pressure Visibility Wind Dir Wind Speed Gust Speed Precip Events Conditions
12:00 AM 59.0 °F 50.0 °F 72% 30.09 in 6.2 mi Variable 2.3 mph - N/A   Unknown
12:30 AM 59.0 °F 50.0 °F 72% 30.09 in 6.2 mi Calm Calm - N/A   Unknown
1:00 AM 57.2 °F 50.0 °F 77% 30.09 in 6.2 mi Variable 2.3 mph - N/A   Unknown
1:30 AM 55.4 °F 50.0 °F 82% 30.09 in 6.2 mi Variable 1.2 mph - N/A   Unknown
2:00 AM 55.4 °F 50.0 °F 82% 30.09 in 6.2 mi Variable 2.3 mph - N/A   Unknown
2:30 AM 55.4 °F 50.0 °F 82% 30.09 in 6.2 mi Variable 2.3 mph - N/A   Unknown
3:00 AM 57.2 °F 50.0 °F 77% 30.09 in 6.2 mi SSW 4.6 mph - N/A   Unknown
3:30 AM 55.4 °F 48.2 °F 77% 30.09 in 6.2 mi Variable 2.3 mph - N/A   Unknown
4:00 AM 53.6 °F 48.2 °F 82% 30.06 in 6.2 mi Variable 1.2 mph - N/A   Unknown
4:30 AM 51.8 °F 48.2 °F 88% 30.09 in 6.2 mi Calm Calm - N/A   Unknown
5:00 AM 51.8 °F 48.2 °F 88% 30.06 in 6.2 mi WSW 1.2 mph - N/A   Unknown
5:30 AM 51.8 °F 48.2 °F 88% 30.06 in 6.2 mi Calm Calm - N/A   Unknown
6:00 AM 50.0 °F 48.2 °F 94% 30.06 in 6.2 mi Variable 2.3 mph - N/A   Unknown
6:30 AM 51.8 °F 48.2 °F 88% 30.09 in 6.2 mi Calm Calm - N/A   Unknown
7:00 AM 50.0 °F 46.4 °F 87% 30.09 in - Calm Calm - N/A   Clear
8:00 AM 50.0 °F 46.4 °F 87% 30.09 in - Calm Calm - N/A   Clear
9:00 AM 55.4 °F 50.0 °F 82% 30.09 in 6.2 mi Variable 1.2 mph - N/A   Partly Cloudy
10:00 AM 60.8 °F 51.8 °F 72% 30.12 in 6.2 mi Variable 3.5 mph - N/A   Partly Cloudy
11:00 AM 68.0 °F 51.8 °F 56% 30.12 in 6.2 mi Calm Calm - N/A   Partly Cloudy
12:00 PM 73.4 °F 51.8 °F 47% 30.09 in 6.2 mi Variable 3.5 mph - N/A   Partly Cloudy
1:00 PM 77.0 °F 50.0 °F 39% 30.09 in 6.2 mi West 3.5 mph - N/A   Mostly Cloudy
2:00 PM 78.8 °F 46.4 °F 32% 30.06 in 6.2 mi West 5.8 mph - N/A   Mostly Cloudy
3:00 PM 80.6 °F 46.4 °F 30% 30.04 in 6.2 mi West 9.2 mph - N/A   Mostly Cloudy
5:00 PM 78.8 °F 55.4 °F 44% 30.01 in 6.2 mi SW 9.2 mph - N/A   Mostly Cloudy
6:00 PM 77.0 °F 53.6 °F 44% 30.01 in 6.2 mi WSW 6.9 mph - N/A   Mostly Cloudy
7:00 PM 75.2 °F 51.8 °F 44% 30.04 in 6.2 mi WSW 8.1 mph - N/A   Mostly Cloudy
8:00 PM 71.6 °F 53.6 °F 53% 30.04 in 6.2 mi West 5.8 mph - N/A   Mostly Cloudy
8:30 PM 68.0 °F 53.6 °F 60% 30.06 in 6.2 mi Calm Calm - N/A   Unknown
9:00 PM 68.0 °F 53.6 °F 60% 30.06 in 6.2 mi WSW 4.6 mph - N/A   Unknown
9:30 PM 66.2 °F 53.6 °F 64% 30.06 in 6.2 mi Variable 2.3 mph - N/A   Unknown
10:00 PM 64.4 °F 53.6 °F 68% 30.06 in 6.2 mi Calm Calm - N/A   Unknown
10:30 PM 60.8 °F 53.6 °F 77% 30.06 in 6.2 mi WSW 1.2 mph - N/A   Unknown
11:00 PM 60.8 °F 53.6 °F 77% 30.06 in 6.2 mi Calm Calm - N/A   Unknown
11:30 PM 59.0 °F 53.6 °F 82% 30.09 in 6.2 mi Calm Calm - N/A   Unknown